{"data":{"norad_id":44782,"epoch":"2026-05-25T04:36:26.102592Z","epoch_age_seconds":58386,"freshness":"FRESH","line1":"1 44782U 19076D   26145.19196878 -.00000175  00000+0 -29246-4 0  9996","line2":"2 44782  45.0089 282.5903 0012432  13.1616 346.9540 14.02066875334596","mean_motion":14.02066875,"eccentricity":0.0012432,"inclination_deg":45.0089,"raan_deg":282.5903,"arg_perigee_deg":13.1616,"mean_anomaly_deg":346.954,"bstar":-2.9246e-5,"rev_number":33459,"period_min":102.70551467097,"perigee_km":877.61512938285,"apogee_km":895.67828759564,"semimajor_km":7264.7837084892,"source":"CELESTRAK","updated_at":"2026-05-25T13:37:56.011498Z"}}